User: anonymous   Login
Location: Wawayanda State Park
(41.1833°N, 74.4333°W)
Time: 05:40:10
(UTC-05:00)
Language:

Landsat 7 - Orbit

View from above orbital plane
View from above orbital plane
View from above satellite
View from above satellite

Ground track
Ground track

The orbit data is extracted from the following two-line orbital elements,

1 25682U 99020A   17015.81647813 -.00000049  00000-0 -91184-6 0  9999
2 25682  98.1920  89.0698 0001369  87.2312 272.9016 14.57123486944405
Epoch (UTC): 15 January 2017 19:35:43
Eccentricity: 0.0001369
inclination: 98.1920°
perigee height: 701 km
apogee height: 703 km
right ascension of ascending node: 89.0698°
argument of perigee: 87.2312°
revolutions per day: 14.57123486
mean anomaly at epoch: 272.9016°
orbit number at epoch: 94440

The dashed part of the orbit path shows where the satellite is in the earth's shadow,  

DLR